Weather History for Ithaca, NY

Change the Weather History Date:

Sunday, February 26, 2012

  Actual Average Record
Temperature  
Mean Temperature 27 °F -  
Max Temperature 31 °F 32 °F 63 °F (1957)
Min Temperature 23 °F 17 °F -5 °F (1970)
Degree Days  
Heating Degree Days 38    
Moisture  
Dew Point 16 °F    
Average Humidity 66    
Maximum Humidity 78    
Minimum Humidity 56    
Precipitation  
Precipitation 0.00 in - - ()
Sea Level Pressure  
Sea Level Pressure 30.35 in    
Wind  
Wind Speed 16 mph (NW)    
Max Wind Speed 25 mph    
Max Gust Speed 31 mph    
Visibility 10 miles    
Events Snow    
Averages and records for this station are not official NWS values.
T = Trace of Precipitation, MM = Missing Value Source: NWS Daily Summary

Daily Weather History Graph

Daily Weather History Graph

Search for Another Location

Airport:

Trip Planner

Search our weather history database for the weather conditions in past years. The results will help you decide how hot, cold, wet, or windy it might be!

Date:

Astronomy

Feb. 26, 2012 Rise Set
Actual Time 6:46 AM EST 5:51 PM EST
Civil Twilight 6:18 AM EST 6:19 PM EST
Nautical Twilight 5:46 AM EST 6:52 PM EST
Astronomical Twilight 5:13 AM EST 7:24 PM EST
Moon 8:33 AM EST (2/26) 10:54 PM EST (2/26)
Length of Visible Light 12h 01m
Length of Day
11h 04m
Waxing Crescent, 20% of the Moon is Illuminated
Feb 26
Waxing Crescent
Feb 29
First Quarter
Mar 8
Full
Mar 14
Last Quarter
Mar 22
New

Hourly Weather History & Observations

Time (EST) Temp. Windchill Dew Point Humidity Pressure Visibility Wind Dir Wind Speed Gust Speed Precip Events Conditions
12:56 AM 24.1 °F 8.0 °F 14.0 °F 65% 30.19 in 10.0 mi WNW 25.3 mph 31.1 mph N/A   Overcast
1:56 AM 23.0 °F 7.6 °F 14.0 °F 68% 30.23 in 10.0 mi NW 21.9 mph 25.3 mph N/A   Overcast
2:56 AM 23.0 °F 9.6 °F 14.0 °F 68% 30.27 in 10.0 mi WNW 16.1 mph 26.5 mph 0.00 in   Overcast
3:09 AM 23.0 °F 10.1 °F 14.0 °F 68% 30.23 in 10.0 mi WNW 15.0 mph 23.0 mph 0.00 in   Overcast
3:24 AM 23.0 °F 7.2 °F 12.2 °F 63% 30.23 in 10.0 mi West 23.0 mph 29.9 mph 0.00 in   Overcast
3:37 AM 23.0 °F 8.3 °F 12.2 °F 63% 30.24 in 10.0 mi WNW 19.6 mph 29.9 mph 0.00 in Snow Light Snow
3:56 AM 23.0 °F 7.6 °F 14.0 °F 68% 30.30 in 10.0 mi WNW 21.9 mph 27.6 mph 0.00 in Snow Light Snow
4:56 AM 23.0 °F 8.3 °F 14.0 °F 68% 30.33 in 10.0 mi WNW 19.6 mph 24.2 mph 0.00 in Snow Light Snow
5:27 AM 23.0 °F 9.6 °F 15.8 °F 74% 30.29 in 10.0 mi WNW 16.1 mph - 0.00 in Snow Light Snow
5:56 AM 23.0 °F 10.1 °F 14.0 °F 68% 30.35 in 10.0 mi NW 15.0 mph 23.0 mph 0.00 in Snow Light Snow
6:22 AM 23.0 °F 13.1 °F 15.8 °F 74% 30.30 in 10.0 mi NNW 9.2 mph - 0.00 in Snow Light Snow
8:56 AM 25.2 °F 13.3 °F 15.1 °F 66% 30.43 in 10.0 mi WNW 13.8 mph - N/A   Mostly Cloudy
10:56 AM 27.1 °F 16.9 °F 16.2 °F 63% 30.45 in 10.0 mi WNW 11.5 mph - 0.00 in Snow Light Snow
12:56 PM 27.1 °F 19.7 °F 16.2 °F 63% 30.44 in 10.0 mi NNW 6.9 mph - 0.00 in   Mostly Cloudy
1:56 PM 31.1 °F 23.1 °F 18.1 °F 59% 30.42 in 10.0 mi NNW 9.2 mph - N/A   Mostly Cloudy
2:56 PM 30.0 °F 23.2 °F 17.1 °F 59% 30.43 in 10.0 mi NNW 6.9 mph - N/A   Overcast
3:56 PM 31.1 °F 22.4 °F 17.1 °F 56% 30.43 in 10.0 mi NW 10.4 mph - N/A   Scattered Clouds
4:56 PM 30.0 °F - 16.2 °F 56% 30.42 in 10.0 mi Calm Calm - N/A   Clear
5:56 PM 28.0 °F - 16.2 °F 61% 30.42 in 10.0 mi Calm Calm - N/A   Clear
6:56 PM 25.2 °F - 19.0 °F 78% 30.43 in 10.0 mi Calm Calm - N/A   Clear
7:56 PM 25.2 °F 18.3 °F 17.1 °F 71% 30.40 in 10.0 mi East 5.8 mph - N/A   Clear
8:56 PM 24.1 °F 18.2 °F 16.2 °F 72% 30.40 in 10.0 mi East 4.6 mph - N/A   Clear
9:56 PM 24.1 °F 17.0 °F 17.1 °F 75% 30.40 in 10.0 mi East 5.8 mph - N/A   Clear
10:56 PM 25.2 °F 19.5 °F 16.2 °F 69% 30.38 in 10.0 mi East 4.6 mph - N/A   Clear
11:56 PM 27.1 °F 19.7 °F 16.2 °F 63% 30.35 in 10.0 mi ESE 6.9 mph - N/A   Clear